Regional Weather Roundup
Issued by NWS

Home | Current Version | Previous Version | Graphics & Text | Print | Product List | Glossary Off
Versions: 1 2 3 4 5 6 7 8 9 10 11 12 13 14 15 16 17 18 19 20 21 22 23 24 25 26 27 28 29 30 31 32 33 34 35 36 37 38 39 40 41 42 43 44 45 46 47 48 49 50

000
ASUS43 KTOP 180859
RWRKS

WEATHER ROUNDUP FOR KANSAS
NATIONAL WEATHER SERVICE GOODLAND KS
400 AM CDT FRI APR 18 2014

NOTE:  "FAIR" INDICATES FEW OR NO CLOUDS BELOW 12,000 FEET WITH NO
SIGNIFICANT WEATHER AND/OR OBSTRUCTIONS TO VISIBILITY.

KSZ001>006-013>018-027>032-041>047-181000-
NORTHWEST KANSAS

CITY           SKY/WX    TMP DP  RH WIND       PRES   REMARKS
GOODLAND       CLEAR     37  34  89 S20       30.11F WCI  27
HAYS           CLEAR     36  30  80 S9        30.20F
HILL CITY      CLEAR     40  36  86 S7        30.18S
RUSSELL        CLEAR     38  34  85 S13       30.19F WCI  30
$$

KSZ061>065-074>080-084>089-181000-
SOUTHWEST KANSAS

CITY           SKY/WX    TMP DP  RH WIND       PRES   REMARKS
DODGE CITY     CLOUDY    41  37  86 S12       30.21S
ELKHART          N/A     36  29  76 S10         N/A  WCI  28
GARDEN CITY    MOCLDY    39  37  92 S12       30.19S FOG     WCI  32
GREAT BEND     CLEAR     34  28  80 S6        30.22S
LIBERAL        CLOUDY    43  36  75 S6        30.23R
$$

KSZ066>073-081>083-090>101-181000-
SOUTHEAST KANSAS

CITY           SKY/WX    TMP DP  RH WIND       PRES   REMARKS
CHANUTE        CLEAR     33  32  96 N3        30.27S FOG
COFFEYVILLE    CLEAR     37  35  92 N3        30.27S FOG
HUTCHINSON     CLEAR     33  32  96 CALM      30.24F FOG
NEWTON         CLEAR     36  28  75 S5        30.27F
PARSONS        CLEAR     34  32  92 CALM      30.28S FOG
WICHITA INTL   PTCLDY    35  32  88 CALM      30.25F FOG
WICHITA JABRA  CLEAR     32  31  96 CALM      30.25S FOG
WICHITA MCCONL CLEAR     39  37  93 CALM      30.25F
WINFIELD       CLEAR     32  29  88 CALM      30.27S FOG
$$

KSZ007>012-019>026-033>040-048>060-102>105-181000-
NORTHEAST KANSAS

CITY           SKY/WX    TMP DP  RH WIND       PRES   REMARKS
CONCORDIA      PTCLDY    39  33  79 S12       30.23S WCI  32
EMPORIA        CLEAR     30  29  96 CALM      30.26S FOG
LAWRENCE       CLEAR     29  27  92 CALM      30.28S FOG
MANHATTAN      CLOUDY    30  28  92 CALM      30.26S FOG
OLATHE IND     CLEAR     32  30  92 CALM      30.28S FOG
OLATHE EXE     CLEAR     33  31  92 CALM      30.27R FOG
SALINA         CLEAR     35  29  78 SE5       30.25F HAZE
TOPEKA BILLARD CLEAR     35  30  82 CALM      30.28S HAZE
TOPEKA FORBES  CLEAR     33  30  88 CALM      30.26F FOG
$$



USA.gov is the U.S. government's official web portal to all federal, state and local government web resources and services.